Weather History for Nome, AK

Change the Weather History Date:

Sunday, March 24, 2013

  Actual Average Record
Temperature  
Mean Temperature -11 °F 11 °F  
Max Temperature -2 °F 19 °F 42 °F (1965)
Min Temperature -20 °F - -30 °F (1959)
Degree Days  
Heating Degree Days 76 54  
Month to date heating degree days 1316 1324  
Since 1 July heating degree days 10856 10606  
Cooling Degree Days 0    
Month to date cooling degree days 0  
Year to date cooling degree days 0  
Moisture  
Dew Point -18 °F    
Average Humidity 0    
Maximum Humidity 0    
Minimum Humidity 0    
Precipitation  
Precipitation 0.00 in 0.02 in 0.75 in (1907)
Month to date precipitation 0.58 0.51  
Year to date precipitation 2.10 2.38  
Snow  
Snow 0.00 in 0.20 in 5.20 in (1907)
Month to date snowfall 8.1 7.1  
Since 1 July snowfall 49.4 63.8  
Snow Depth 27.00 in    
Sea Level Pressure  
Sea Level Pressure 30.13 in    
Wind  
Wind Speed 4 mph (NNW)    
Max Wind Speed 12 mph    
Max Gust Speed 16 mph    
Visibility 10 miles    
Events      
T = Trace of Precipitation, MM = Missing Value Source: NWS Daily Summary

Daily Weather History Graph

Daily Weather History Graph

Search for Another Location

Airport:

Trip Planner

Search our weather history database for the weather conditions in past years. The results will help you decide how hot, cold, wet, or windy it might be!

Date:

Astronomy

Mar. 24, 2013 Rise Set
Actual Time 8:46 AM AKDT 9:31 PM AKDT
Civil Twilight 7:57 AM AKDT 10:20 PM AKDT
Nautical Twilight 6:56 AM AKDT 11:22 PM AKDT
Astronomical Twilight 5:43 AM AKDT 12:36 AM AKDT
Moon 6:35 PM AKDT (3/24) 7:50 AM AKDT (3/24)
Length of Visible Light 14h 23m
Length of Day
12h 45m
Waxing Gibbous, 92% of the Moon is Illuminated
Mar 24
Waxing Gibbous
Mar 27
Full
Apr 2
Last Quarter
Apr 10
New
Apr 18
First Quarter

Hourly Weather History & Observations

Time (AKDT) Temp. Windchill Dew Point Humidity Pressure Visibility Wind Dir Wind Speed Gust Speed Precip Events Conditions
12:53 AM -8.0 °F -22.5 °F -16.1 °F 68% 30.11 in 10.0 mi WNW 6.9 mph - N/A   Clear
1:53 AM -9.9 °F -21.5 °F -18.0 °F 68% 30.11 in 10.0 mi WNW 4.6 mph - N/A   Clear
2:53 AM -11.0 °F -26.2 °F -18.9 °F 68% 30.11 in 10.0 mi NW 6.9 mph - N/A   Clear
3:53 AM -11.0 °F -20.4 °F -18.9 °F 68% 30.11 in 10.0 mi WSW 3.5 mph - N/A   Scattered Clouds
4:53 AM -11.0 °F - -18.9 °F 68% 30.11 in 10.0 mi Calm Calm - N/A   Scattered Clouds
5:53 AM -14.1 °F - -20.9 °F 71% 30.12 in 10.0 mi Calm Calm - N/A   Scattered Clouds
6:53 AM -17.0 °F - -23.1 °F 74% 30.11 in 10.0 mi Calm Calm - N/A   Scattered Clouds
7:53 AM -17.0 °F - -23.1 °F 74% 30.12 in 10.0 mi Calm Calm - N/A   Partly Cloudy
8:53 AM -17.0 °F - -24.0 °F 70% 30.12 in 10.0 mi Calm Calm - N/A   Clear
9:53 AM -16.1 °F - -23.1 °F 71% 30.12 in 10.0 mi Calm Calm - N/A   Scattered Clouds
10:53 AM -15.0 °F -25.0 °F -23.1 °F 67% 30.12 in 10.0 mi WNW 3.5 mph - N/A   Partly Cloudy
11:53 AM -8.0 °F -16.9 °F -18.0 °F 61% 30.22 in 10.0 mi NNE 3.5 mph - N/A   Clear
12:53 PM -7.1 °F -19.9 °F -18.0 °F 59% 30.16 in 10.0 mi NW 5.8 mph - N/A   Clear
1:53 PM -5.1 °F -15.8 °F -16.1 °F 59% 30.14 in 10.0 mi North 4.6 mph - N/A   Clear
2:53 PM -2.9 °F -17.7 °F -14.1 °F 59% 30.13 in 10.0 mi North 8.1 mph - N/A   Clear
3:53 PM -2.9 °F -16.5 °F -15.0 °F 56% 30.14 in 10.0 mi NNW 6.9 mph - N/A   Mostly Cloudy
4:53 PM -2.0 °F -15.4 °F -15.0 °F 54% 30.13 in 10.0 mi NNW 6.9 mph - N/A   Mostly Cloudy
5:53 PM -2.0 °F -13.9 °F -15.0 °F 54% 30.13 in 10.0 mi NNW 5.8 mph - N/A   Scattered Clouds
6:53 PM -2.9 °F -11.2 °F -15.0 °F 56% 30.13 in 10.0 mi NW 3.5 mph - N/A   Mostly Cloudy
7:53 PM -5.1 °F -20.4 °F -15.0 °F 62% 30.12 in 10.0 mi North 8.1 mph - N/A   Mostly Cloudy
8:53 PM -8.0 °F -25.0 °F -17.0 °F 65% 30.12 in 10.0 mi NNW 9.2 mph - N/A   Mostly Cloudy
9:53 PM -9.0 °F -25.2 °F -18.0 °F 65% 30.12 in 10.0 mi North 8.1 mph - N/A   Overcast
10:53 PM -7.1 °F -23.9 °F -17.0 °F 62% 30.12 in 10.0 mi North 9.2 mph - N/A   Overcast
11:53 PM -8.0 °F -21.0 °F -18.0 °F 61% 30.12 in 10.0 mi NNW 5.8 mph - N/A   Overcast